Precipitable_Water
0.22 0.23 0.23 0.23 0.24 0.24 0.25 0.26 0.26 0.27 0.28 0.29 0.29 0.29 0.30 0.30 0.30 0.30 0.31 0.31 0.30 0.29 0.28 0.27 0.26 0.25 0.24 0.23 0.22 0.22 0.22 0.22 0.21 0.19 0.19 0.19 0.19 0.19 0.20 0.21 0.21 0.20 0.19 0.18 0.17 0.17 0.17 0.17 0.17 0.16 0.16 0.16 0.16 0.16 0.16 0.16 0.16 0.16 0.15 0.15 0.14 0.13 0.13 0.14 0.14 0.14 0.12 0.11 0.12 0.11 0.10 0.11 0.13 0.15 0.19 0.26 0.28 0.32 0.37 0.40 0.45 0.50 0.50 0.53 0.59
0.23 0.23 0.24 0.24 0.25 0.25 0.26 0.27 0.28 0.27 0.29 0.30 0.31 0.32 0.33 0.34 0.33 0.33 0.33 0.32 0.31 0.30 0.28 0.26 0.25 0.24 0.23 0.23 0.23 0.22 0.22 0.22 0.22 0.21 0.20 0.20 0.20 0.20 0.21 0.21 0.21 0.21 0.19 0.18 0.18 0.17 0.17 0.17 0.17 0.16 0.16 0.15 0.16 0.16 0.16 0.17 0.17 0.16 0.15 0.14 0.14 0.14 0.13 0.13 0.13 0.13 0.11 0.10 0.09 0.08 0.09 0.10 0.12 0.14 0.19 0.22 0.25 0.27 0.32 0.35 0.39 0.45 0.45 0.48 0.54
0.23 0.24 0.25 0.25 0.25 0.25 0.25 0.26 0.26 0.27 0.27 0.29 0.31 0.31 0.31 0.31 0.32 0.32 0.31 0.30 0.30 0.29 0.27 0.26 0.25 0.25 0.24 0.24 0.23 0.23 0.24 0.23 0.23 0.22 0.21 0.20 0.21 0.21 0.21 0.21 0.21 0.20 0.20 0.19 0.18 0.17 0.17 0.17 0.16 0.16 0.15 0.15 0.15 0.16 0.16 0.16 0.16 0.15 0.15 0.14 0.13 0.14 0.13 0.13 0.13 0.14 0.11 0.10 0.10 0.08 0.07 0.08 0.10 0.12 0.15 0.19 0.22 0.24 0.27 0.30 0.33 0.38 0.41 0.44 0.49
0.23 0.24 0.24 0.25 0.25 0.25 0.26 0.27 0.27 0.27 0.27 0.28 0.29 0.30 0.30 0.29 0.28 0.28 0.27 0.27 0.27 0.27 0.27 0.27 0.26 0.26 0.26 0.25 0.25 0.24 0.24 0.24 0.24 0.24 0.22 0.21 0.21 0.21 0.21 0.21 0.21 0.21 0.20 0.20 0.19 0.18 0.17 0.17 0.16 0.16 0.15 0.15 0.14 0.15 0.15 0.15 0.15 0.15 0.15 0.15 0.14 0.13 0.13 0.12 0.14 0.14 0.12 0.10 0.07 0.07 0.08 0.08 0.07 0.08 0.12 0.16 0.19 0.22 0.24 0.26 0.29 0.33 0.35 0.40 0.45
0.23 0.24 0.25 0.26 0.26 0.27 0.28 0.29 0.29 0.29 0.29 0.29 0.30 0.30 0.29 0.27 0.26 0.26 0.25 0.25 0.26 0.26 0.27 0.27 0.26 0.26 0.26 0.26 0.26 0.26 0.26 0.25 0.25 0.24 0.23 0.21 0.21 0.21 0.21 0.21 0.21 0.21 0.21 0.20 0.19 0.18 0.18 0.17 0.17 0.16 0.15 0.14 0.14 0.15 0.15 0.14 0.15 0.15 0.15 0.14 0.14 0.13 0.12 0.12 0.12 0.13 0.12 0.12 0.10 0.08 0.08 0.07 0.08 0.10 0.12 0.13 0.16 0.18 0.21 0.23 0.25 0.29 0.31 0.35 0.39
0.25 0.25 0.26 0.27 0.28 0.29 0.29 0.30 0.30 0.29 0.29 0.30 0.31 0.31 0.30 0.28 0.26 0.25 0.25 0.24 0.24 0.25 0.26 0.26 0.25 0.25 0.24 0.24 0.24 0.24 0.24 0.24 0.24 0.23 0.23 0.22 0.21 0.22 0.21 0.21 0.22 0.21 0.21 0.20 0.20 0.19 0.18 0.18 0.17 0.16 0.15 0.14 0.14 0.15 0.15 0.15 0.15 0.14 0.14 0.14 0.14 0.14 0.12 0.12 0.11 0.12 0.12 0.12 0.12 0.12 0.10 0.09 0.09 0.10 0.11 0.10 0.14 0.17 0.19 0.21 0.23 0.26 0.28 0.31 0.34
0.26 0.27 0.28 0.28 0.29 0.30 0.31 0.31 0.31 0.31 0.31 0.31 0.30 0.31 0.30 0.28 0.26 0.26 0.25 0.25 0.24 0.25 0.25 0.25 0.25 0.25 0.24 0.24 0.24 0.24 0.23 0.23 0.23 0.23 0.23 0.23 0.22 0.21 0.21 0.21 0.21 0.21 0.21 0.21 0.20 0.20 0.19 0.18 0.18 0.17 0.15 0.14 0.14 0.15 0.15 0.15 0.15 0.15 0.15 0.14 0.14 0.14 0.13 0.12 0.11 0.12 0.12 0.12 0.13 0.12 0.12 0.12 0.12 0.10 0.09 0.11 0.12 0.15 0.17 0.19 0.21 0.23 0.25 0.27 0.30
0.26 0.28 0.29 0.29 0.30 0.30 0.30 0.31 0.31 0.31 0.31 0.32 0.31 0.31 0.29 0.27 0.26 0.26 0.26 0.26 0.26 0.25 0.25 0.25 0.24 0.24 0.24 0.24 0.24 0.24 0.24 0.23 0.23 0.22 0.22 0.22 0.22 0.22 0.21 0.21 0.21 0.21 0.21 0.20 0.20 0.20 0.20 0.18 0.18 0.17 0.16 0.15 0.14 0.15 0.15 0.15 0.15 0.16 0.15 0.15 0.14 0.14 0.13 0.12 0.12 0.12 0.12 0.12 0.13 0.12 0.12 0.12 0.12 0.12 0.12 0.12 0.12 0.12 0.14 0.17 0.19 0.20 0.22 0.25 0.27
0.27 0.28 0.29 0.29 0.30 0.30 0.31 0.31 0.31 0.32 0.32 0.32 0.32 0.31 0.30 0.28 0.27 0.27 0.26 0.26 0.26 0.26 0.25 0.25 0.25 0.24 0.24 0.24 0.24 0.25 0.24 0.24 0.23 0.23 0.22 0.22 0.22 0.22 0.22 0.22 0.21 0.21 0.21 0.20 0.20 0.20 0.20 0.19 0.18 0.17 0.16 0.16 0.15 0.15 0.16 0.16 0.15 0.15 0.15 0.14 0.14 0.13 0.13 0.13 0.13 0.12 0.13 0.12 0.12 0.12 0.12 0.12 0.12 0.12 0.12 0.12 0.11 0.12 0.13 0.16 0.17 0.19 0.21 0.22 0.24
0.29 0.30 0.30 0.30 0.31 0.32 0.32 0.32 0.32 0.32 0.33 0.33 0.34 0.33 0.32 0.30 0.29 0.28 0.27 0.27 0.27 0.26 0.26 0.26 0.25 0.25 0.24 0.24 0.24 0.24 0.24 0.24 0.23 0.22 0.22 0.22 0.22 0.23 0.23 0.22 0.22 0.21 0.21 0.20 0.20 0.20 0.20 0.20 0.19 0.18 0.17 0.16 0.15 0.15 0.16 0.16 0.16 0.15 0.15 0.14 0.13 0.13 0.13 0.13 0.13 0.13 0.13 0.13 0.13 0.13 0.12 0.11 0.12 0.12 0.12 0.11 0.11 0.13 0.13 0.14 0.15 0.16 0.16 0.18 0.21
0.29 0.30 0.30 0.31 0.32 0.33 0.33 0.32 0.32 0.33 0.33 0.34 0.34 0.33 0.31 0.29 0.28 0.28 0.29 0.28 0.27 0.27 0.26 0.26 0.26 0.25 0.25 0.25 0.24 0.24 0.24 0.23 0.22 0.21 0.21 0.21 0.21 0.22 0.23 0.23 0.22 0.21 0.20 0.20 0.20 0.20 0.20 0.20 0.19 0.18 0.17 0.16 0.16 0.16 0.16 0.16 0.16 0.15 0.14 0.14 0.14 0.13 0.13 0.13 0.13 0.13 0.13 0.13 0.14 0.13 0.12 0.11 0.11 0.10 0.11 0.12 0.12 0.12 0.13 0.14 0.15 0.16 0.17 0.17 0.19
0.29 0.30 0.30 0.31 0.32 0.32 0.32 0.31 0.31 0.31 0.31 0.32 0.32 0.31 0.30 0.28 0.27 0.26 0.27 0.28 0.28 0.27 0.27 0.26 0.26 0.26 0.25 0.25 0.24 0.24 0.23 0.22 0.22 0.21 0.20 0.20 0.20 0.21 0.22 0.23 0.22 0.21 0.21 0.20 0.20 0.20 0.19 0.19 0.19 0.18 0.18 0.17 0.16 0.16 0.17 0.17 0.16 0.15 0.15 0.14 0.14 0.14 0.13 0.13 0.13 0.13 0.13 0.13 0.13 0.13 0.12 0.12 0.12 0.11 0.11 0.12 0.12 0.12 0.13 0.13 0.13 0.14 0.15 0.17 0.18
0.29 0.30 0.30 0.31 0.31 0.31 0.30 0.30 0.30 0.31 0.31 0.32 0.31 0.30 0.28 0.27 0.26 0.25 0.25 0.26 0.26 0.27 0.27 0.27 0.26 0.26 0.26 0.25 0.24 0.24 0.23 0.22 0.22 0.21 0.21 0.20 0.20 0.20 0.20 0.21 0.22 0.21 0.20 0.19 0.19 0.19 0.19 0.19 0.18 0.18 0.18 0.18 0.17 0.16 0.16 0.16 0.16 0.15 0.15 0.15 0.14 0.14 0.14 0.13 0.13 0.13 0.13 0.13 0.13 0.13 0.13 0.12 0.12 0.12 0.12 0.12 0.13 0.14 0.14 0.14 0.15 0.16 0.15 0.16 0.18
0.30 0.31 0.31 0.32 0.32 0.31 0.31 0.31 0.31 0.32 0.33 0.31 0.29 0.28 0.26 0.25 0.25 0.24 0.24 0.25 0.25 0.25 0.26 0.26 0.26 0.26 0.26 0.25 0.25 0.24 0.23 0.23 0.22 0.22 0.22 0.21 0.20 0.19 0.19 0.20 0.21 0.21 0.20 0.19 0.19 0.19 0.19 0.19 0.18 0.18 0.18 0.18 0.17 0.17 0.16 0.16 0.16 0.15 0.15 0.15 0.14 0.14 0.14 0.14 0.14 0.13 0.13 0.13 0.13 0.13 0.13 0.13 0.12 0.12 0.12 0.12 0.13 0.13 0.13 0.13 0.13 0.14 0.14 0.14 0.16
0.31 0.31 0.32 0.32 0.32 0.32 0.31 0.32 0.33 0.34 0.33 0.30 0.28 0.26 0.25 0.24 0.24 0.23 0.23 0.25 0.25 0.25 0.25 0.25 0.25 0.25 0.25 0.25 0.25 0.24 0.23 0.23 0.22 0.22 0.21 0.20 0.19 0.19 0.19 0.19 0.20 0.21 0.20 0.20 0.19 0.19 0.19 0.19 0.18 0.18 0.18 0.18 0.18 0.17 0.17 0.17 0.16 0.16 0.16 0.15 0.15 0.14 0.14 0.14 0.14 0.14 0.13 0.13 0.13 0.13 0.13 0.13 0.13 0.13 0.12 0.12 0.12 0.12 0.13 0.14 0.14 0.12 0.12 0.13 0.13
0.32 0.32 0.32 0.32 0.32 0.32 0.33 0.34 0.35 0.34 0.32 0.29 0.27 0.26 0.24 0.24 0.23 0.23 0.24 0.24 0.25 0.25 0.25 0.25 0.25 0.25 0.25 0.25 0.24 0.24 0.23 0.23 0.22 0.22 0.21 0.20 0.18 0.18 0.18 0.19 0.20 0.21 0.21 0.20 0.19 0.19 0.19 0.18 0.18 0.18 0.18 0.18 0.18 0.17 0.17 0.17 0.16 0.16 0.16 0.15 0.15 0.15 0.14 0.14 0.14 0.14 0.13 0.14 0.13 0.13 0.13 0.13 0.13 0.13 0.13 0.12 0.12 0.12 0.13 0.14 0.14 0.13 0.11 0.10 0.12
0.32 0.32 0.32 0.32 0.33 0.34 0.36 0.36 0.36 0.33 0.31 0.29 0.27 0.26 0.24 0.23 0.23 0.22 0.23 0.23 0.24 0.25 0.25 0.25 0.25 0.24 0.24 0.24 0.24 0.24 0.23 0.22 0.22 0.21 0.21 0.20 0.18 0.17 0.17 0.18 0.19 0.20 0.21 0.20 0.20 0.19 0.18 0.18 0.18 0.18 0.18 0.18 0.18 0.17 0.17 0.17 0.17 0.16 0.16 0.15 0.15 0.15 0.15 0.14 0.14 0.14 0.14 0.14 0.13 0.13 0.13 0.13 0.13 0.13 0.13 0.13 0.12 0.12 0.12 0.12 0.12 0.12 0.13 0.11 0.10
0.33 0.33 0.33 0.33 0.35 0.36 0.36 0.36 0.34 0.32 0.30 0.28 0.27 0.26 0.25 0.23 0.22 0.22 0.22 0.22 0.23 0.23 0.23 0.23 0.24 0.24 0.24 0.24 0.23 0.23 0.22 0.22 0.22 0.21 0.21 0.20 0.19 0.18 0.17 0.17 0.18 0.20 0.21 0.20 0.20 0.19 0.18 0.18 0.18 0.18 0.18 0.18 0.18 0.17 0.17 0.17 0.17 0.17 0.16 0.15 0.15 0.15 0.15 0.15 0.14 0.14 0.14 0.14 0.13 0.13 0.13 0.13 0.13 0.13 0.13 0.13 0.13 0.12 0.12 0.12 0.12 0.13 0.13 0.12 0.11
0.33 0.33 0.33 0.35 0.36 0.36 0.34 0.32 0.32 0.31 0.30 0.29 0.28 0.27 0.25 0.24 0.24 0.23 0.22 0.22 0.22 0.22 0.22 0.21 0.22 0.22 0.22 0.23 0.23 0.23 0.22 0.22 0.22 0.21 0.21 0.20 0.19 0.18 0.17 0.17 0.18 0.19 0.21 0.21 0.20 0.19 0.19 0.18 0.18 0.18 0.18 0.18 0.18 0.17 0.17 0.17 0.17 0.17 0.16 0.16 0.15 0.15 0.14 0.14 0.15 0.15 0.14 0.14 0.13 0.13 0.13 0.13 0.14 0.14 0.14 0.13 0.13 0.13 0.12 0.12 0.12 0.13 0.13 0.13 0.12
0.33 0.34 0.35 0.35 0.35 0.32 0.31 0.31 0.30 0.30 0.29 0.29 0.28 0.27 0.26 0.26 0.25 0.25 0.24 0.23 0.23 0.22 0.22 0.21 0.21 0.20 0.20 0.20 0.22 0.23 0.22 0.22 0.22 0.21 0.20 0.20 0.19 0.18 0.17 0.17 0.17 0.19 0.21 0.21 0.20 0.19 0.19 0.18 0.18 0.18 0.18 0.18 0.17 0.17 0.17 0.17 0.17 0.17 0.17 0.16 0.16 0.15 0.14 0.14 0.14 0.15 0.15 0.14 0.14 0.13 0.13 0.13 0.14 0.14 0.13 0.13 0.13 0.13 0.12 0.11 0.11 0.12 0.13 0.13 0.12
0.34 0.35 0.34 0.32 0.30 0.29 0.30 0.31 0.31 0.30 0.29 0.29 0.28 0.27 0.27 0.27 0.26 0.26 0.25 0.24 0.23 0.23 0.23 0.22 0.22 0.21 0.20 0.19 0.19 0.20 0.22 0.22 0.21 0.21 0.20 0.20 0.19 0.18 0.17 0.17 0.16 0.17 0.20 0.21 0.20 0.19 0.18 0.18 0.18 0.18 0.18 0.17 0.17 0.17 0.18 0.17 0.17 0.17 0.17 0.16 0.16 0.15 0.15 0.14 0.14 0.14 0.15 0.14 0.14 0.14 0.14 0.14 0.14 0.14 0.13 0.13 0.13 0.13 0.13 0.12 0.11 0.11 0.12 0.12 0.11
0.34 0.32 0.30 0.28 0.28 0.29 0.30 0.31 0.30 0.29 0.28 0.28 0.28 0.28 0.27 0.27 0.27 0.26 0.25 0.25 0.25 0.24 0.23 0.23 0.23 0.22 0.21 0.21 0.20 0.19 0.21 0.21 0.20 0.19 0.20 0.20 0.19 0.18 0.17 0.16 0.16 0.17 0.19 0.20 0.20 0.19 0.18 0.19 0.18 0.18 0.17 0.17 0.17 0.17 0.18 0.18 0.17 0.17 0.17 0.16 0.16 0.15 0.15 0.15 0.14 0.14 0.14 0.14 0.14 0.14 0.14 0.14 0.14 0.14 0.14 0.14 0.14 0.13 0.13 0.12 0.11 0.11 0.11 0.11 0.11
0.30 0.29 0.28 0.28 0.28 0.29 0.30 0.29 0.29 0.28 0.29 0.29 0.28 0.27 0.27 0.27 0.26 0.25 0.24 0.24 0.24 0.24 0.24 0.23 0.23 0.23 0.22 0.22 0.21 0.20 0.20 0.21 0.20 0.19 0.18 0.19 0.19 0.18 0.17 0.16 0.15 0.16 0.19 0.20 0.20 0.19 0.19 0.18 0.18 0.18 0.17 0.17 0.17 0.17 0.18 0.18 0.17 0.17 0.17 0.16 0.16 0.15 0.15 0.15 0.15 0.15 0.15 0.15 0.14 0.14 0.14 0.14 0.14 0.14 0.14 0.14 0.14 0.14 0.13 0.12 0.12 0.12 0.12 0.12 0.11
0.28 0.28 0.28 0.28 0.29 0.30 0.29 0.28 0.28 0.28 0.28 0.27 0.27 0.27 0.27 0.26 0.26 0.24 0.22 0.22 0.22 0.23 0.23 0.22 0.22 0.23 0.23 0.22 0.22 0.21 0.20 0.20 0.21 0.20 0.18 0.18 0.18 0.18 0.17 0.15 0.15 0.16 0.18 0.19 0.20 0.19 0.19 0.18 0.18 0.18 0.17 0.18 0.18 0.17 0.18 0.18 0.18 0.18 0.17 0.16 0.16 0.15 0.15 0.15 0.15 0.16 0.15 0.15 0.15 0.14 0.14 0.15 0.14 0.14 0.14 0.14 0.14 0.14 0.14 0.13 0.12 0.12 0.12 0.12 0.11
0.27 0.27 0.27 0.28 0.28 0.28 0.28 0.28 0.27 0.26 0.26 0.25 0.25 0.26 0.26 0.25 0.24 0.24 0.22 0.22 0.21 0.21 0.21 0.20 0.20 0.21 0.22 0.22 0.22 0.22 0.21 0.20 0.20 0.21 0.19 0.18 0.18 0.18 0.17 0.16 0.15 0.16 0.18 0.19 0.20 0.20 0.19 0.18 0.18 0.17 0.17 0.17 0.18 0.18 0.18 0.18 0.18 0.18 0.17 0.17 0.16 0.16 0.15 0.15 0.16 0.16 0.16 0.16 0.15 0.15 0.15 0.15 0.15 0.14 0.14 0.14 0.14 0.14 0.14 0.13 0.12 0.12 0.13 0.13 0.12
0.26 0.27 0.26 0.26 0.27 0.28 0.28 0.27 0.27 0.26 0.25 0.25 0.23 0.22 0.23 0.23 0.23 0.22 0.21 0.20 0.19 0.19 0.19 0.19 0.18 0.19 0.20 0.20 0.20 0.21 0.22 0.20 0.19 0.20 0.20 0.19 0.18 0.18 0.17 0.16 0.15 0.16 0.18 0.19 0.19 0.19 0.19 0.18 0.18 0.18 0.18 0.18 0.18 0.18 0.18 0.18 0.18 0.18 0.18 0.17 0.17 0.16 0.16 0.16 0.16 0.17 0.17 0.17 0.16 0.16 0.16 0.15 0.15 0.14 0.14 0.14 0.15 0.14 0.14 0.14 0.13 0.12 0.13 0.13 0.12
0.27 0.26 0.26 0.27 0.27 0.27 0.26 0.26 0.26 0.26 0.25 0.24 0.23 0.23 0.23 0.23 0.23 0.22 0.21 0.21 0.19 0.18 0.17 0.16 0.16 0.17 0.18 0.19 0.19 0.20 0.21 0.21 0.20 0.19 0.20 0.20 0.19 0.18 0.17 0.16 0.15 0.16 0.18 0.19 0.19 0.19 0.19 0.18 0.18 0.18 0.18 0.18 0.18 0.18 0.18 0.18 0.18 0.18 0.17 0.17 0.17 0.16 0.16 0.16 0.16 0.17 0.17 0.17 0.17 0.17 0.16 0.16 0.15 0.15 0.15 0.15 0.15 0.15 0.15 0.14 0.14 0.13 0.13 0.13 0.13
0.26 0.25 0.25 0.25 0.26 0.26 0.26 0.26 0.26 0.25 0.25 0.25 0.25 0.26 0.26 0.26 0.25 0.24 0.24 0.23 0.22 0.20 0.18 0.17 0.17 0.17 0.17 0.18 0.18 0.19 0.21 0.21 0.21 0.19 0.19 0.20 0.19 0.18 0.17 0.16 0.16 0.16 0.18 0.19 0.19 0.19 0.18 0.18 0.18 0.18 0.18 0.18 0.18 0.18 0.18 0.17 0.17 0.17 0.18 0.18 0.17 0.16 0.16 0.16 0.16 0.16 0.17 0.17 0.17 0.17 0.17 0.17 0.16 0.16 0.16 0.16 0.16 0.15 0.16 0.15 0.15 0.14 0.14 0.14 0.14
0.23 0.23 0.24 0.24 0.23 0.23 0.22 0.23 0.23 0.24 0.24 0.25 0.27 0.28 0.28 0.28 0.26 0.25 0.24 0.23 0.22 0.21 0.20 0.19 0.18 0.17 0.18 0.19 0.19 0.19 0.20 0.21 0.21 0.20 0.19 0.19 0.19 0.18 0.17 0.16 0.16 0.17 0.18 0.19 0.19 0.19 0.18 0.18 0.18 0.18 0.18 0.18 0.18 0.18 0.17 0.17 0.17 0.17 0.18 0.18 0.17 0.16 0.16 0.15 0.16 0.16 0.17 0.17 0.17 0.18 0.18 0.17 0.17 0.17 0.17 0.17 0.17 0.17 0.16 0.15 0.15 0.15 0.14 0.14 0.14
0.22 0.22 0.22 0.22 0.22 0.22 0.22 0.23 0.24 0.25 0.25 0.26 0.27 0.28 0.27 0.26 0.25 0.24 0.24 0.23 0.23 0.21 0.20 0.20 0.19 0.19 0.20 0.20 0.19 0.19 0.19 0.20 0.21 0.20 0.19 0.19 0.19 0.18 0.17 0.16 0.16 0.17 0.18 0.19 0.19 0.19 0.19 0.18 0.18 0.18 0.18 0.18 0.18 0.18 0.17 0.18 0.18 0.18 0.18 0.18 0.17 0.17 0.16 0.16 0.16 0.16 0.17 0.17 0.17 0.18 0.18 0.18 0.18 0.17 0.17 0.18 0.18 0.18 0.18 0.17 0.16 0.15 0.15 0.14 0.14
0.21 0.21 0.21 0.21 0.21 0.21 0.23 0.23 0.24 0.26 0.26 0.27 0.28 0.27 0.27 0.26 0.25 0.24 0.23 0.22 0.22 0.20 0.20 0.21 0.20 0.21 0.22 0.21 0.20 0.19 0.19 0.19 0.20 0.20 0.19 0.19 0.19 0.18 0.17 0.17 0.16 0.17 0.18 0.19 0.19 0.19 0.19 0.18 0.18 0.18 0.18 0.18 0.18 0.17 0.17 0.18 0.18 0.19 0.18 0.18 0.17 0.17 0.16 0.16 0.16 0.16 0.16 0.17 0.18 0.18 0.18 0.18 0.18 0.18 0.18 0.18 0.18 0.18 0.18 0.18 0.18 0.17 0.16 0.15 0.14
0.20 0.20 0.20 0.20 0.21 0.21 0.21 0.22 0.24 0.25 0.26 0.26 0.25 0.25 0.25 0.24 0.24 0.23 0.22 0.22 0.21 0.20 0.20 0.20 0.21 0.22 0.22 0.22 0.21 0.19 0.19 0.19 0.19 0.20 0.19 0.19 0.19 0.18 0.17 0.17 0.17 0.17 0.19 0.19 0.19 0.19 0.19 0.18 0.18 0.18 0.18 0.18 0.17 0.17 0.17 0.18 0.18 0.19 0.19 0.19 0.18 0.17 0.16 0.16 0.16 0.16 0.17 0.17 0.18 0.18 0.18 0.19 0.19 0.18 0.18 0.18 0.18 0.19 0.18 0.19 0.19 0.18 0.17 0.17 0.16
0.20 0.20 0.19 0.20 0.20 0.20 0.20 0.21 0.23 0.25 0.24 0.25 0.25 0.25 0.24 0.24 0.23 0.22 0.22 0.21 0.21 0.21 0.21 0.22 0.22 0.22 0.23 0.22 0.21 0.19 0.19 0.19 0.19 0.20 0.19 0.19 0.18 0.18 0.17 0.17 0.17 0.18 0.19 0.19 0.19 0.19 0.19 0.18 0.18 0.18 0.18 0.18 0.17 0.17 0.17 0.18 0.18 0.19 0.19 0.19 0.18 0.18 0.17 0.17 0.17 0.17 0.17 0.18 0.18 0.18 0.18 0.19 0.19 0.19 0.19 0.19 0.19 0.18 0.19 0.19 0.20 0.19 0.19 0.18 0.17
0.19 0.19 0.20 0.21 0.21 0.20 0.21 0.23 0.25 0.25 0.23 0.23 0.23 0.22 0.23 0.22 0.22 0.22 0.21 0.21 0.22 0.21 0.21 0.22 0.23 0.23 0.23 0.21 0.20 0.20 0.19 0.19 0.19 0.20 0.19 0.18 0.18 0.17 0.17 0.17 0.17 0.18 0.19 0.19 0.19 0.18 0.18 0.18 0.18 0.18 0.17 0.17 0.17 0.17 0.17 0.17 0.18 0.19 0.19 0.19 0.19 0.18 0.18 0.17 0.17 0.17 0.18 0.18 0.18 0.18 0.19 0.19 0.20 0.19 0.19 0.19 0.19 0.19 0.19 0.19 0.19 0.19 0.19 0.18 0.18
0.19 0.19 0.19 0.19 0.19 0.19 0.21 0.22 0.20 0.20 0.21 0.21 0.21 0.22 0.23 0.22 0.22 0.21 0.22 0.23 0.23 0.22 0.22 0.23 0.23 0.23 0.22 0.21 0.20 0.19 0.19 0.19 0.19 0.19 0.19 0.18 0.18 0.17 0.17 0.17 0.17 0.18 0.19 0.18 0.18 0.18 0.18 0.18 0.18 0.18 0.17 0.17 0.17 0.17 0.17 0.17 0.18 0.18 0.19 0.19 0.19 0.18 0.18 0.18 0.18 0.18 0.19 0.19 0.19 0.19 0.20 0.20 0.20 0.20 0.20 0.20 0.19 0.18 0.19 0.19 0.19 0.19 0.19 0.19 0.19
0.19 0.18 0.18 0.18 0.19 0.19 0.18 0.19 0.20 0.20 0.21 0.21 0.22 0.22 0.22 0.21 0.22 0.22 0.23 0.23 0.23 0.23 0.24 0.23 0.23 0.22 0.21 0.20 0.20 0.19 0.19 0.19 0.19 0.19 0.19 0.18 0.18 0.17 0.17 0.17 0.17 0.18 0.19 0.19 0.18 0.18 0.17 0.17 0.17 0.17 0.17 0.16 0.17 0.17 0.17 0.17 0.18 0.18 0.19 0.19 0.18 0.18 0.17 0.17 0.17 0.18 0.19 0.19 0.20 0.20 0.20 0.20 0.20 0.20 0.21 0.20 0.19 0.19 0.19 0.18 0.18 0.18 0.19 0.19 0.19
0.19 0.18 0.18 0.19 0.19 0.18 0.18 0.19 0.18 0.19 0.19 0.19 0.20 0.20 0.20 0.20 0.21 0.21 0.22 0.22 0.23 0.24 0.24 0.23 0.22 0.21 0.21 0.20 0.20 0.20 0.19 0.19 0.19 0.19 0.19 0.18 0.18 0.17 0.17 0.17 0.17 0.18 0.18 0.18 0.18 0.18 0.17 0.17 0.17 0.17 0.17 0.16 0.16 0.17 0.17 0.17 0.18 0.18 0.19 0.18 0.18 0.17 0.17 0.17 0.17 0.18 0.19 0.19 0.20 0.20 0.21 0.21 0.21 0.20 0.21 0.20 0.20 0.20 0.18 0.18 0.18 0.18 0.18 0.18 0.18
0.17 0.17 0.17 0.17 0.17 0.17 0.17 0.16 0.15 0.15 0.16 0.17 0.17 0.17 0.17 0.18 0.19 0.20 0.21 0.22 0.23 0.23 0.23 0.23 0.22 0.21 0.21 0.20 0.20 0.19 0.19 0.19 0.19 0.19 0.19 0.19 0.18 0.18 0.17 0.18 0.17 0.18 0.18 0.18 0.18 0.17 0.17 0.17 0.17 0.16 0.16 0.16 0.16 0.16 0.17 0.17 0.17 0.18 0.18 0.18 0.18 0.17 0.17 0.17 0.18 0.18 0.19 0.19 0.20 0.21 0.21 0.21 0.21 0.21 0.21 0.20 0.20 0.20 0.19 0.18 0.17 0.17 0.17 0.17 0.17
0.17 0.16 0.16 0.15 0.15 0.15 0.14 0.13 0.13 0.13 0.14 0.14 0.14 0.15 0.14 0.15 0.16 0.18 0.20 0.21 0.22 0.22 0.22 0.22 0.22 0.22 0.21 0.19 0.19 0.19 0.19 0.19 0.19 0.19 0.19 0.18 0.18 0.18 0.17 0.18 0.18 0.18 0.18 0.18 0.17 0.17 0.17 0.17 0.17 0.16 0.17 0.16 0.16 0.16 0.17 0.17 0.18 0.18 0.18 0.18 0.18 0.17 0.16 0.17 0.17 0.18 0.19 0.19 0.20 0.21 0.21 0.22 0.21 0.21 0.21 0.20 0.20 0.21 0.20 0.19 0.18 0.17 0.16 0.16 0.17
0.16 0.15 0.14 0.14 0.14 0.13 0.12 0.11 0.11 0.12 0.13 0.13 0.13 0.13 0.13 0.14 0.15 0.17 0.18 0.18 0.19 0.21 0.22 0.23 0.22 0.22 0.20 0.19 0.19 0.19 0.19 0.19 0.19 0.19 0.19 0.19 0.18 0.18 0.17 0.17 0.18 0.18 0.17 0.17 0.17 0.17 0.17 0.16 0.16 0.16 0.16 0.16 0.16 0.16 0.17 0.17 0.18 0.18 0.19 0.18 0.18 0.17 0.16 0.16 0.17 0.17 0.17 0.19 0.20 0.20 0.21 0.21 0.21 0.21 0.20 0.20 0.20 0.20 0.20 0.20 0.19 0.18 0.17 0.16 0.18
0.14 0.13 0.14 0.13 0.12 0.11 0.11 0.11 0.12 0.12 0.12 0.11 0.11 0.12 0.12 0.13 0.14 0.14 0.14 0.16 0.18 0.20 0.22 0.22 0.21 0.21 0.20 0.19 0.18 0.18 0.18 0.19 0.19 0.19 0.19 0.18 0.18 0.18 0.17 0.17 0.17 0.17 0.17 0.17 0.17 0.16 0.16 0.16 0.16 0.16 0.16 0.16 0.16 0.16 0.16 0.17 0.18 0.18 0.19 0.19 0.18 0.17 0.17 0.16 0.16 0.17 0.18 0.18 0.18 0.19 0.20 0.20 0.20 0.20 0.20 0.20 0.20 0.20 0.20 0.21 0.21 0.20 0.19 0.19 0.20
0.13 0.13 0.13 0.11 0.09 0.09 0.10 0.11 0.11 0.10 0.10 0.11 0.11 0.11 0.12 0.13 0.12 0.12 0.13 0.15 0.17 0.18 0.19 0.20 0.20 0.20 0.19 0.18 0.18 0.18 0.18 0.19 0.19 0.19 0.18 0.18 0.18 0.18 0.18 0.17 0.17 0.17 0.17 0.16 0.16 0.16 0.16 0.16 0.16 0.16 0.16 0.16 0.16 0.17 0.16 0.17 0.18 0.18 0.19 0.19 0.18 0.17 0.17 0.17 0.16 0.17 0.17 0.17 0.18 0.18 0.18 0.18 0.19 0.19 0.19 0.19 0.20 0.20 0.20 0.20 0.20 0.21 0.21 0.22 0.21
0.11 0.11 0.09 0.09 0.08 0.09 0.10 0.09 0.09 0.09 0.10 0.10 0.11 0.11 0.12 0.11 0.11 0.12 0.13 0.14 0.14 0.15 0.17 0.19 0.19 0.19 0.19 0.18 0.18 0.17 0.18 0.18 0.18 0.18 0.18 0.17 0.18 0.17 0.17 0.17 0.17 0.16 0.16 0.16 0.16 0.16 0.15 0.15 0.15 0.16 0.16 0.16 0.16 0.17 0.17 0.17 0.17 0.18 0.18 0.19 0.18 0.18 0.17 0.17 0.16 0.16 0.17 0.17 0.17 0.17 0.18 0.18 0.18 0.18 0.18 0.19 0.19 0.19 0.19 0.20 0.20 0.20 0.20 0.21 0.21
0.10 0.09 0.09 0.09 0.08 0.09 0.09 0.08 0.08 0.09 0.09 0.10 0.11 0.11 0.10 0.10 0.10 0.11 0.11 0.12 0.13 0.13 0.15 0.17 0.18 0.18 0.18 0.18 0.18 0.17 0.18 0.18 0.18 0.18 0.18 0.17 0.17 0.17 0.17 0.17 0.16 0.16 0.16 0.15 0.15 0.15 0.15 0.15 0.15 0.15 0.16 0.16 0.17 0.17 0.17 0.17 0.18 0.18 0.18 0.18 0.18 0.18 0.18 0.17 0.17 0.16 0.17 0.17 0.17 0.17 0.18 0.18 0.18 0.18 0.19 0.19 0.20 0.20 0.20 0.21 0.21 0.21 0.22 0.22 0.21
0.08 0.08 0.09 0.09 0.09 0.08 0.08 0.07 0.08 0.08 0.09 0.10 0.11 0.09 0.09 0.08 0.09 0.09 0.10 0.11 0.11 0.12 0.13 0.15 0.17 0.18 0.18 0.18 0.18 0.18 0.18 0.18 0.18 0.18 0.17 0.17 0.17 0.17 0.16 0.16 0.16 0.16 0.15 0.15 0.15 0.15 0.15 0.15 0.15 0.15 0.15 0.16 0.16 0.17 0.17 0.17 0.18 0.18 0.18 0.18 0.18 0.18 0.18 0.17 0.16 0.16 0.17 0.17 0.17 0.18 0.18 0.18 0.18 0.19 0.19 0.20 0.20 0.20 0.20 0.20 0.20 0.20 0.20 0.20 0.20
0.09 0.08 0.08 0.08 0.08 0.07 0.07 0.07 0.07 0.08 0.09 0.10 0.09 0.09 0.08 0.08 0.08 0.09 0.09 0.10 0.11 0.11 0.12 0.14 0.16 0.17 0.18 0.18 0.18 0.18 0.18 0.18 0.18 0.17 0.17 0.17 0.16 0.16 0.16 0.16 0.16 0.15 0.15 0.15 0.15 0.15 0.15 0.15 0.15 0.15 0.15 0.16 0.16 0.16 0.17 0.17 0.18 0.18 0.18 0.18 0.17 0.17 0.16 0.16 0.16 0.16 0.17 0.18 0.17 0.18 0.18 0.19 0.19 0.19 0.19 0.18 0.18 0.18 0.19 0.19 0.19 0.19 0.19 0.18 0.18
0.08 0.07 0.08 0.08 0.07 0.06 0.06 0.06 0.07 0.08 0.09 0.08 0.08 0.08 0.08 0.08 0.08 0.08 0.08 0.09 0.10 0.10 0.11 0.13 0.14 0.16 0.18 0.18 0.18 0.18 0.17 0.17 0.17 0.17 0.17 0.17 0.16 0.16 0.16 0.16 0.15 0.15 0.15 0.15 0.15 0.15 0.15 0.15 0.15 0.15 0.15 0.15 0.16 0.16 0.16 0.17 0.17 0.17 0.16 0.16 0.16 0.15 0.15 0.16 0.16 0.16 0.17 0.17 0.17 0.17 0.17 0.18 0.18 0.18 0.18 0.17 0.17 0.17 0.17 0.17 0.17 0.17 0.17 0.17 0.18
0.08 0.08 0.08 0.07 0.06 0.06 0.06 0.06 0.07 0.07 0.08 0.08 0.07 0.07 0.07 0.07 0.07 0.07 0.08 0.08 0.09 0.09 0.10 0.12 0.13 0.15 0.17 0.18 0.18 0.18 0.17 0.17 0.17 0.17 0.16 0.16 0.16 0.16 0.16 0.15 0.15 0.15 0.15 0.15 0.15 0.15 0.15 0.15 0.15 0.15 0.15 0.15 0.15 0.16 0.16 0.16 0.16 0.16 0.15 0.15 0.15 0.14 0.14 0.14 0.15 0.15 0.16 0.16 0.16 0.16 0.16 0.16 0.16 0.16 0.16 0.16 0.16 0.16 0.16 0.16 0.16 0.16 0.16 0.17 0.17
0.07 0.07 0.07 0.06 0.06 0.06 0.06 0.06 0.07 0.07 0.07 0.07 0.06 0.07 0.07 0.07 0.07 0.07 0.08 0.08 0.08 0.08 0.10 0.11 0.13 0.14 0.16 0.17 0.18 0.18 0.17 0.16 0.16 0.16 0.16 0.16 0.16 0.16 0.16 0.16 0.16 0.16 0.15 0.15 0.15 0.15 0.15 0.15 0.15 0.15 0.15 0.15 0.15 0.15 0.15 0.16 0.16 0.15 0.15 0.14 0.14 0.14 0.15 0.15 0.15 0.16 0.15 0.15 0.14 0.14 0.14 0.14 0.14 0.14 0.14 0.14 0.14 0.14 0.15 0.15 0.15 0.15 0.16 0.16 0.16
0.07 0.07 0.07 0.07 0.07 0.06 0.06 0.06 0.07 0.07 0.06 0.06 0.06 0.06 0.07 0.07 0.07 0.07 0.07 0.07 0.07 0.08 0.09 0.10 0.12 0.13 0.15 0.16 0.17 0.17 0.17 0.16 0.16 0.16 0.16 0.16 0.16 0.16 0.16 0.16 0.15 0.16 0.16 0.16 0.16 0.15 0.15 0.15 0.15 0.15 0.15 0.15 0.14 0.15 0.15 0.16 0.16 0.16 0.16 0.16 0.16 0.16 0.16 0.16 0.15 0.16 0.15 0.14 0.14 0.14 0.14 0.13 0.13 0.13 0.13 0.13 0.13 0.13 0.14 0.14 0.14 0.15 0.15 0.15 0.16
0.07 0.06 0.06 0.06 0.06 0.06 0.06 0.06 0.06 0.06 0.06 0.06 0.06 0.06 0.06 0.06 0.07 0.07 0.07 0.07 0.07 0.07 0.08 0.09 0.11 0.12 0.14 0.15 0.17 0.17 0.17 0.16 0.16 0.16 0.16 0.15 0.15 0.16 0.17 0.17 0.16 0.16 0.16 0.16 0.17 0.16 0.16 0.16 0.15 0.15 0.15 0.16 0.16 0.16 0.16 0.16 0.16 0.16 0.16 0.17 0.16 0.16 0.16 0.16 0.16 0.15 0.14 0.13 0.13 0.13 0.13 0.13 0.13 0.13 0.13 0.13 0.13 0.13 0.14 0.14 0.14 0.14 0.15 0.15 0.15
Wind_Speed
20 22 23 23 24 25 26 27 28 29 31 32 33 34 35 35 36 36 37 37 37 37 38 38 38 39 39 39 39 39 39 40 40 40 40 40 40 40 40 40 40 40 40 40 40 40 40 39 38 38 37 37 36 36 35 34 33 33 32 32 32 32 32 31 31 31 31 30 30 32 35 40 46 49 52 55 55 54 54 53 53 53 53 52 52
21 22 23 24 25 26 27 28 29 31 32 33 34 35 36 36 37 37 37 37 38 38 39 39 39 39 39 39 39 40 40 40 41 41 41 41 41 41 40 40 40 40 40 40 40 40 40 39 38 37 37 37 36 36 35 34 33 32 32 31 31 31 31 31 31 30 29 29 28 30 32 35 41 45 49 53 55 55 54 53 52 52 52 52 52
22 23 24 25 26 28 29 30 32 33 34 35 36 37 37 37 38 38 38 38 38 39 40 40 40 40 40 40 40 40 41 41 41 42 42 42 41 41 41 40 40 40 40 40 40 40 39 38 38 37 36 36 36 35 35 34 33 32 31 31 30 30 31 31 30 30 29 29 28 27 28 31 36 41 45 49 53 55 55 53 52 52 52 52 52
23 24 26 27 28 30 31 33 34 35 36 37 38 38 39 39 39 39 39 39 40 40 40 41 41 41 41 41 41 41 41 41 42 42 42 42 42 41 41 41 40 40 40 40 40 39 39 38 37 37 36 36 36 35 35 34 33 32 31 31 30 30 30 30 30 29 29 28 26 25 26 28 32 37 41 45 50 54 56 54 52 52 52 53 52
24 26 28 29 31 32 33 34 35 36 37 38 39 40 40 41 41 41 41 41 41 41 41 41 41 41 41 42 42 42 42 42 42 42 42 42 42 41 41 41 41 40 40 40 40 39 39 38 37 36 36 35 35 34 34 33 32 32 31 30 30 30 29 29 29 29 28 27 26 25 25 26 29 35 39 43 47 51 55 56 54 53 53 54 54
25 27 29 30 32 33 35 36 36 37 38 39 40 41 41 42 42 43 43 43 43 42 42 42 42 42 42 42 42 42 42 42 42 42 42 41 41 41 41 41 41 40 40 40 40 39 38 38 37 36 35 35 35 34 33 33 32 31 30 29 29 29 28 28 28 28 27 27 26 26 25 26 28 33 37 41 45 49 53 55 56 55 55 54 55
26 28 30 31 33 35 36 37 38 38 39 40 41 41 42 43 43 43 44 44 44 44 43 43 43 43 43 43 43 43 43 42 42 42 42 42 41 41 41 41 41 41 40 40 40 39 38 38 37 36 36 35 34 33 33 32 31 30 29 29 28 28 27 27 27 27 26 26 26 26 26 27 28 31 35 39 42 46 50 53 55 56 55 55 55
28 30 32 33 35 36 38 39 39 40 41 41 42 43 43 43 43 44 44 44 45 45 45 45 44 44 44 43 44 43 43 43 42 42 42 42 42 41 41 41 41 41 41 40 40 39 38 38 37 37 36 35 35 33 33 32 31 30 29 28 28 27 27 27 26 26 26 25 25 25 26 26 27 29 33 37 41 43 47 50 53 55 56 56 55
30 32 34 36 37 38 39 40 41 42 42 43 44 44 44 44 44 44 44 45 45 45 46 46 46 46 45 44 44 44 44 44 43 42 42 42 42 41 41 41 41 41 41 40 40 39 38 38 37 37 36 36 35 34 33 32 31 30 29 29 28 28 27 27 26 25 25 25 25 25 25 25 26 27 30 34 39 42 44 46 49 52 54 56 56
31 33 36 37 38 40 41 41 42 43 44 45 46 46 46 45 45 45 45 45 46 46 46 47 47 47 46 46 46 45 44 44 43 43 42 42 42 41 41 40 41 41 41 41 40 39 39 38 37 37 37 36 35 34 33 33 32 31 30 29 29 28 27 27 26 26 25 25 25 24 24 24 25 26 28 31 35 40 41 43 45 49 52 54 56
33 35 37 38 40 41 42 42 44 44 45 46 47 47 47 46 46 46 46 46 46 46 46 47 47 48 48 48 47 47 46 45 44 43 42 41 41 41 41 41 41 41 41 41 40 40 39 38 37 37 37 36 35 34 34 33 32 31 31 30 29 29 28 27 27 26 26 25 25 24 24 25 25 25 27 29 32 36 39 41 43 45 49 52 54
35 37 38 40 41 42 43 44 45 46 47 48 48 48 48 47 47 47 47 47 46 46 47 47 47 48 48 49 49 48 47 46 45 44 43 42 41 41 41 41 41 41 41 41 40 40 39 38 37 37 36 36 35 34 34 33 33 32 31 30 30 29 29 28 27 27 26 25 25 25 24 25 25 25 26 28 31 35 37 39 41 43 46 48 51
37 39 40 41 43 44 45 45 46 47 48 49 49 49 49 48 48 48 47 47 47 47 47 48 48 48 49 49 49 49 48 48 47 45 44 42 42 42 41 41 41 41 41 41 41 40 39 39 38 37 36 36 35 34 34 33 33 32 31 30 30 29 29 28 28 27 27 26 25 25 24 24 25 25 25 26 29 33 36 38 39 42 44 46 48
39 40 42 43 45 46 46 46 47 48 50 51 51 50 50 49 49 48 48 48 48 48 48 48 49 49 49 49 49 50 49 49 48 47 45 44 43 43 42 42 41 41 42 42 41 40 40 39 38 37 36 36 35 35 34 34 33 32 32 31 30 30 29 29 28 28 27 26 26 25 25 24 25 25 25 25 27 31 34 36 38 40 42 44 45
41 42 44 45 47 47 47 47 48 50 52 52 52 51 51 50 49 49 49 49 49 49 49 50 50 50 50 49 50 50 50 50 49 48 47 45 44 44 43 42 42 42 42 42 41 41 40 39 38 37 36 36 36 35 34 34 33 33 32 31 30 30 29 29 28 28 28 27 26 26 25 24 24 25 25 25 26 29 32 35 37 39 41 42 43
43 44 46 47 48 48 48 48 50 51 52 53 52 52 51 51 50 50 50 50 50 50 50 51 51 51 51 50 50 50 50 50 50 49 48 47 46 45 44 43 42 42 42 42 41 41 40 39 38 38 37 36 36 35 34 34 33 33 32 32 31 30 30 29 29 28 28 28 27 26 26 25 25 24 25 25 26 27 30 33 36 38 40 42 43
45 46 47 48 49 48 48 49 51 53 53 54 53 53 52 52 52 52 51 51 51 51 51 51 52 52 52 52 51 51 51 51 50 50 50 49 47 46 45 43 43 43 42 42 41 40 40 38 38 38 37 36 36 36 35 34 34 33 33 32 32 31 30 30 29 29 28 28 27 27 26 25 25 24 24 25 26 27 29 31 35 38 40 42 42
46 47 48 49 49 49 50 51 52 54 54 54 54 53 53 53 53 53 53 53 53 52 52 52 52 53 53 53 52 52 52 52 51 51 50 50 48 47 46 44 43 43 42 41 41 40 39 38 37 37 37 36 36 36 35 34 34 33 33 33 32 31 31 30 29 29 28 28 27 27 26 26 25 25 24 25 26 27 27 29 32 35 39 42 42
48 49 49 49 50 50 51 52 53 54 55 55 54 54 54 54 54 54 54 54 54 54 53 53 53 53 54 54 54 53 53 52 52 51 50 50 49 48 46 45 43 42 42 41 40 40 39 38 37 36 36 36 36 36 35 34 34 34 33 33 32 32 31 31 30 29 28 28 27 27 27 26 26 25 25 25 25 27 27 27 29 32 36 40 42
49 50 50 50 51 51 52 53 54 55 55 55 55 55 55 56 56 56 56 56 56 56 55 55 55 55 55 55 55 54 54 53 52 51 50 50 50 48 47 45 43 42 41 41 40 39 39 38 37 36 36 36 35 35 34 34 33 33 33 33 32 32 32 31 30 29 29 28 27 27 27 26 26 25 25 25 25 26 27 28 28 30 33 37 41
50 51 51 51 51 51 53 54 55 56 56 55 55 56 57 57 57 58 58 58 58 58 58 58 57 57 56 56 56 55 54 53 52 51 51 50 49 48 47 45 43 42 41 40 40 39 38 38 37 36 36 35 35 35 34 33 33 33 33 33 32 32 32 31 31 30 29 28 27 27 27 26 26 25 25 25 25 25 26 27 28 29 31 34 38
51 52 52 51 52 53 54 56 57 57 57 57 57 58 58 59 59 59 59 59 60 60 59 59 59 59 58 58 57 56 54 53 52 51 50 49 48 48 47 44 43 42 41 40 39 39 38 37 37 36 36 35 35 34 33 33 33 33 33 32 32 31 31 31 31 30 29 28 28 27 27 26 26 25 25 25 25 24 25 27 27 28 29 32 35
52 52 51 51 53 54 56 58 59 58 58 60 60 60 60 60 59 60 60 60 61 61 61 61 60 60 60 59 58 56 55 53 52 50 49 48 47 47 46 44 42 41 40 39 39 38 37 36 36 36 35 35 34 34 33 33 33 32 32 32 32 31 31 31 31 30 30 28 28 27 27 26 26 25 25 25 25 24 25 26 27 27 28 30 32
53 52 51 53 55 56 58 59 60 60 61 62 62 61 60 60 59 60 62 62 62 62 62 62 62 62 61 60 58 56 55 53 51 50 49 47 47 46 45 43 42 41 40 38 38 37 37 36 36 35 35 34 34 33 33 32 32 32 32 32 31 31 31 31 31 30 30 29 28 28 27 26 26 25 25 25 24 24 24 25 26 26 27 28 30
54 53 53 55 57 58 59 60 61 61 61 61 61 60 60 60 61 62 63 64 65 65 65 65 64 64 63 61 59 57 54 53 51 50 48 47 46 45 44 42 41 40 38 37 37 36 36 36 35 35 34 33 33 33 32 32 32 31 31 31 31 31 31 31 30 30 29 29 28 28 27 26 26 25 25 25 24 23 23 23 24 25 26 27 27
54 55 56 58 59 60 62 62 61 60 60 61 61 61 61 61 62 63 64 65 66 66 67 67 66 65 63 62 60 57 54 52 51 49 48 47 45 44 43 42 40 39 37 37 36 36 35 35 35 34 33 33 32 32 31 31 31 31 31 31 30 30 30 30 30 30 29 28 27 27 27 26 26 25 25 24 23 23 22 22 23 24 24 25 26
55 57 59 60 61 62 63 63 62 61 61 61 62 62 62 62 63 64 64 64 65 66 68 67 65 64 62 61 58 56 54 51 50 49 48 46 45 44 42 41 39 38 37 36 36 35 34 34 34 34 32 32 31 31 31 31 31 30 30 30 30 29 29 29 29 29 29 28 27 27 27 27 26 25 24 23 22 22 22 22 22 23 23 24 25
56 58 60 60 61 62 62 63 63 63 63 63 63 63 63 62 63 64 65 65 66 68 69 68 64 62 60 58 57 55 52 49 48 47 46 45 44 43 41 40 38 37 36 35 35 34 33 33 33 33 32 31 31 31 30 30 30 30 30 29 29 29 29 29 29 29 28 28 27 27 27 27 25 24 24 23 22 22 21 21 22 22 22 23 24
58 59 60 60 60 61 62 63 63 64 64 65 65 64 63 63 64 65 66 67 68 69 69 67 63 60 58 56 54 52 49 46 45 44 44 43 42 41 40 39 37 36 35 34 34 33 32 32 32 32 31 31 30 30 30 29 29 29 28 28 28 28 29 28 28 28 28 27 27 27 27 26 25 25 24 24 24 23 22 22 21 21 22 22 23
59 59 59 60 60 61 63 64 64 65 65 66 65 64 63 63 64 66 67 68 68 69 68 65 61 58 56 54 51 48 45 43 42 41 41 41 40 40 39 38 36 35 34 33 32 32 31 31 31 31 30 30 30 29 29 29 29 28 28 27 28 28 28 28 28 28 27 27 27 27 26 26 26 25 25 25 24 24 23 23 22 21 21 22 22
59 59 60 60 61 62 62 64 64 65 65 65 64 63 62 63 65 66 68 68 67 67 65 62 58 56 53 51 49 46 42 40 39 39 39 38 38 38 37 36 35 34 33 32 31 31 30 30 30 30 30 29 29 28 28 29 29 29 28 27 27 27 27 27 28 27 27 27 26 26 25 25 25 25 25 25 25 24 24 24 23 22 22 22 22
58 60 60 61 61 62 63 64 65 64 65 64 63 62 63 64 65 66 66 66 65 64 62 59 56 53 50 48 46 43 40 38 37 36 36 36 36 36 35 34 33 32 32 31 30 30 29 29 29 29 29 28 28 28 28 28 29 29 28 28 27 27 27 27 27 27 27 26 26 25 25 25 25 25 24 24 24 25 24 24 24 23 23 23 22
59 59 60 60 60 61 63 64 64 63 63 63 62 62 64 65 65 65 64 64 62 61 59 56 53 50 47 45 43 41 38 37 35 33 33 33 34 34 34 33 32 31 30 29 29 29 28 28 28 28 28 27 27 28 28 28 28 28 28 27 27 27 27 27 27 27 27 27 26 25 24 24 24 24 24 23 23 24 24 24 23 23 24 24 23
59 59 60 60 60 61 62 63 62 62 63 63 62 62 63 63 63 63 62 61 60 59 57 54 51 47 44 43 41 39 38 36 33 31 31 31 32 33 32 32 31 30 29 28 28 28 28 28 27 27 27 27 27 27 28 28 28 27 27 27 27 27 27 27 27 27 27 26 26 24 24 24 24 24 23 23 22 22 23 23 23 23 24 24 24
59 59 60 60 61 62 62 63 63 63 63 62 61 61 62 61 61 60 60 59 58 57 56 53 49 45 43 42 40 39 38 35 32 30 29 29 30 31 31 30 29 29 28 27 27 27 27 27 27 27 26 26 27 27 27 27 27 27 27 27 26 26 26 27 27 27 26 26 26 24 24 23 23 23 23 23 22 22 22 22 22 23 23 23 23
59 59 60 60 61 62 62 63 62 62 61 61 60 60 60 60 59 58 58 57 57 56 54 51 47 44 43 41 40 39 37 34 31 29 28 28 29 30 30 29 28 28 27 27 27 27 27 27 27 26 26 26 27 27 27 27 27 27 26 26 26 26 26 27 27 27 27 26 26 24 23 23 23 23 23 23 22 22 22 22 23 23 23 23 23
58 59 59 60 60 61 61 61 61 60 59 59 59 59 59 59 58 57 56 56 56 54 52 48 46 45 44 42 40 39 36 33 30 28 27 27 27 28 29 28 27 27 26 26 26 26 26 26 26 26 26 26 26 26 26 27 26 26 26 25 25 25 26 26 27 27 26 26 26 25 23 23 23 23 23 23 23 22 22 22 22 23 23 23 23
58 59 60 60 60 60 60 60 59 58 57 57 58 58 58 57 56 56 55 55 54 52 50 48 46 45 44 42 40 38 35 32 29 27 26 26 26 26 27 27 27 26 25 24 24 24 24 24 25 26 25 25 25 25 25 26 26 26 25 25 24 24 25 25 26 26 26 26 26 25 24 23 22 23 23 23 23 23 23 23 23 22 22 23 23
58 59 59 59 59 58 58 58 57 57 57 57 58 57 56 55 55 54 54 53 52 52 50 48 46 44 43 42 40 37 34 31 28 26 25 25 24 25 25 26 26 25 24 23 23 23 23 23 23 24 24 24 25 24 24 25 25 25 24 24 23 24 24 24 24 25 25 25 25 25 24 23 22 22 23 24 24 24 24 24 24 24 23 23 23
58 58 58 58 57 56 56 56 55 56 57 57 57 56 55 54 53 53 53 53 54 53 51 48 45 44 43 42 39 37 33 30 27 25 24 23 23 23 24 24 24 23 23 23 22 22 22 22 22 22 23 24 24 24 23 23 24 24 24 23 23 23 23 23 24 24 24 24 24 23 23 23 23 23 23 24 24 25 25 25 25 25 25 25 24
57 56 56 55 55 55 54 54 54 55 56 56 56 55 54 53 52 52 54 54 53 52 49 47 46 45 43 41 39 36 33 29 26 25 23 22 22 22 23 23 23 22 21 21 21 21 21 21 21 21 22 23 23 23 22 22 23 23 23 23 22 23 23 23 23 23 23 22 22 23 23 23 23 24 24 24 25 25 26 26 26 27 27 27 26
55 55 55 55 55 54 53 52 54 56 56 55 56 55 53 52 52 53 53 53 51 50 49 49 47 45 43 40 38 35 32 28 25 23 22 21 21 21 21 21 21 21 20 20 19 20 20 20 20 21 21 22 22 22 22 22 22 23 23 23 22 22 22 22 22 22 22 22 22 23 23 24 24 25 25 25 26 26 26 26 27 28 29 29 28
55 55 55 55 54 52 52 54 56 56 55 55 55 54 53 53 53 52 52 51 51 51 51 50 48 45 43 40 38 35 31 27 24 22 21 20 19 19 20 20 20 20 19 18 18 19 19 19 19 20 20 20 21 21 21 21 21 22 23 23 22 22 22 22 22 22 22 22 22 22 23 24 24 25 25 26 26 26 26 26 26 27 28 28 28
55 55 55 54 53 52 53 56 56 55 55 55 54 53 53 54 53 52 53 53 53 53 53 51 48 45 43 40 37 34 30 26 23 21 20 18 18 18 18 19 19 18 17 17 17 18 18 19 19 19 19 19 20 20 20 20 20 21 22 22 22 23 23 22 21 21 21 21 21 21 22 23 24 24 24 24 24 24 23 23 23 23 24 24 25
54 54 54 53 52 53 55 56 55 55 55 54 53 53 55 55 55 54 55 54 53 53 53 50 47 44 42 39 36 32 28 25 22 20 18 17 17 17 17 18 18 17 16 16 16 17 17 17 18 18 18 18 18 18 18 18 19 19 20 21 21 21 21 21 20 19 20 20 20 21 21 21 21 21 21 21 21 21 21 21 21 21 22 23 23
53 53 53 52 52 54 56 56 55 55 54 52 52 54 56 57 56 55 54 53 52 52 51 49 46 43 40 37 34 30 26 23 21 19 17 16 16 16 16 16 16 16 15 15 15 16 16 16 17 17 17 17 17 16 16 17 17 18 19 20 20 20 20 19 19 19 20 20 20 19 19 19 19 20 20 20 20 21 21 21 21 22 22 23 23
53 52 52 52 53 55 56 56 56 55 53 53 54 56 57 57 56 54 52 51 51 50 49 48 46 43 39 35 32 28 25 21 19 17 16 15 14 15 15 15 15 14 14 14 14 14 15 15 15 15 15 15 15 15 15 16 17 17 18 19 20 20 20 20 20 20 20 20 19 19 19 19 19 20 20 20 21 21 21 22 22 22 23 23 24
51 51 52 53 54 55 55 55 55 54 54 55 57 57 57 56 55 53 52 51 50 49 48 47 44 42 38 33 30 27 23 20 18 16 14 14 13 14 14 14 14 14 13 13 13 14 14 14 14 14 14 14 14 14 14 15 16 17 17 18 19 20 20 20 20 20 20 20 20 20 20 20 20 21 21 21 21 21 22 22 22 23 23 24 25
51 51 52 52 53 54 55 54 53 54 56 57 58 57 56 55 54 53 52 51 49 48 47 45 43 40 37 32 29 26 22 19 17 15 14 13 13 14 14 14 14 13 13 13 13 13 14 14 14 14 14 13 13 13 14 15 16 17 17 17 17 18 18 19 19 19 19 19 20 20 20 20 20 20 20 21 21 21 22 22 22 22 23 23 24
51 51 52 52 53 54 54 53 53 55 57 58 57 57 56 55 54 53 52 51 49 47 45 43 41 38 35 32 28 24 21 18 16 14 13 13 14 14 15 15 14 14 14 14 14 14 14 14 14 14 13 13 13 13 13 14 15 16 16 17 17 17 17 18 18 18 18 18 18 18 18 18 18 19 19 19 20 20 20 20 20 21 21 21 22
51 51 52 53 54 54 53 53 55 57 57 57 57 57 56 55 54 52 51 50 49 46 43 41 39 37 35 32 28 24 20 18 16 14 13 13 13 14 15 16 15 15 15 15 15 15 15 15 14 14 13 13 13 13 13 13 14 15 16 15 15 15 15 16 16 16 17 17 17 17 18 18 18 18 18 18 18 18 18 18 18 18 19 19 20
Wind_Direction
317 316 315 314 313 312 312 311 310 309 308 306 304 303 302 300 300 299 299 298 298 298 298 298 299 300 301 302 302 303 304 305 305 305 305 305 305 304 304 303 303 303 303 303 302 302 302 301 301 300 299 298 296 294 292 289 288 288 288 288 289 290 291 291 291 291 292 289 280 269 259 249 241 237 235 232 231 231 229 228 228 227 227 227 227
318 318 317 317 315 314 313 312 311 310 309 307 306 304 303 301 300 299 299 298 298 298 298 298 298 299 300 301 301 302 303 304 305 305 305 304 304 303 303 302 302 302 302 302 302 301 301 300 300 299 299 297 295 293 291 288 286 286 287 288 288 289 290 291 291 291 291 290 284 274 263 252 243 237 235 233 231 231 230 228 227 227 227 227 227
319 319 319 319 318 316 315 314 312 311 310 308 307 305 304 302 301 299 299 298 298 298 298 298 298 298 298 299 300 301 302 302 303 303 303 303 303 302 302 302 301 301 301 301 301 301 300 300 299 298 298 297 294 292 289 286 285 285 285 286 287 288 289 290 290 291 291 291 286 275 265 255 245 237 234 234 233 231 230 229 228 227 228 227 227
318 319 320 320 320 319 317 315 314 313 312 310 308 307 305 303 301 300 299 298 298 298 297 297 297 297 297 298 299 300 301 301 302 302 302 302 302 301 301 301 301 300 300 300 300 300 299 298 298 297 298 296 294 291 288 285 283 283 283 284 286 287 288 288 289 290 290 291 287 278 269 259 247 238 234 235 235 232 231 230 230 229 229 228 227
318 320 321 322 321 321 319 318 317 315 314 312 311 309 307 305 302 300 299 298 298 297 297 297 297 297 297 297 298 298 299 300 301 301 302 302 301 301 301 300 300 300 300 299 299 299 298 297 297 296 297 296 293 290 287 284 282 281 281 282 283 285 287 287 287 289 289 289 286 280 272 262 251 243 238 236 235 234 232 232 232 231 231 230 229
319 320 321 321 321 321 320 319 318 316 315 314 313 312 310 308 305 302 301 299 298 297 297 296 296 296 296 296 297 298 298 299 299 300 301 301 301 301 300 300 300 299 299 298 298 298 297 296 295 295 296 295 292 289 286 283 280 280 280 281 282 283 285 286 286 287 288 287 285 280 272 266 259 250 243 237 235 235 234 233 233 233 233 232 230
321 321 321 321 320 320 320 320 319 318 317 316 315 313 312 310 308 305 303 301 299 298 297 296 296 295 295 295 296 296 297 297 298 299 300 301 300 300 300 300 300 299 298 297 297 296 296 295 294 294 294 294 291 288 285 281 279 278 278 279 280 281 283 284 285 286 287 286 285 281 274 268 263 254 246 241 236 234 234 235 235 234 234 233 231
322 321 321 321 321 320 320 320 320 319 319 318 317 315 314 311 310 308 306 304 301 299 297 296 295 294 294 294 294 295 295 296 297 298 299 299 299 299 300 300 299 299 298 297 296 295 294 294 292 292 292 292 290 287 283 280 277 276 276 277 278 279 280 282 283 284 285 285 285 282 276 270 265 258 250 244 238 234 234 235 236 235 234 233 232
321 321 321 321 320 320 320 321 321 320 320 319 318 317 315 313 312 310 308 306 303 301 299 297 295 294 293 293 294 294 294 295 296 296 297 298 298 298 299 299 299 299 298 296 295 294 293 293 291 290 291 290 288 285 282 278 275 274 274 275 276 276 278 279 281 282 283 284 284 282 278 272 267 262 254 247 241 236 234 234 234 235 234 233 232
319 320 320 319 319 320 320 321 321 321 321 320 319 318 316 314 312 311 309 307 305 303 301 298 296 294 293 293 292 293 294 294 295 295 296 296 297 297 297 298 299 299 298 296 294 292 292 291 290 289 289 288 286 283 280 277 274 272 272 273 273 274 276 277 278 280 281 281 282 282 280 274 268 263 257 250 243 238 236 234 233 233 233 232 231
318 319 319 319 319 320 320 321 321 321 321 320 320 318 316 315 313 311 310 309 307 304 302 300 297 295 294 293 292 292 292 293 293 293 294 295 295 296 296 297 297 298 298 296 294 292 291 290 289 288 287 286 284 282 279 275 273 271 271 271 271 272 273 275 275 277 279 279 280 281 280 276 270 265 260 252 245 239 237 237 236 233 233 232 231
318 318 318 319 319 320 320 321 321 321 321 320 320 318 317 315 313 311 310 309 307 305 303 301 299 297 295 293 292 291 291 291 291 291 292 293 294 295 295 296 296 296 297 296 294 292 290 290 288 287 286 284 283 280 277 274 271 270 270 269 270 270 271 272 273 274 276 277 278 279 280 278 273 268 263 255 247 242 240 239 238 235 233 232 232
318 318 318 319 320 320 320 320 320 320 321 320 320 319 317 316 314 312 310 310 308 306 304 302 300 298 296 294 293 291 290 290 290 290 290 291 292 293 294 294 295 295 295 295 294 292 290 289 288 286 285 283 281 278 275 272 270 269 268 268 268 268 269 271 271 272 273 275 276 277 278 279 276 271 266 259 250 244 242 240 239 237 235 234 233
318 318 319 319 320 320 320 320 320 320 321 321 320 319 318 316 315 313 311 310 308 306 305 303 301 300 298 296 294 292 291 290 289 289 289 289 290 291 292 292 293 294 294 294 293 292 290 288 287 285 283 281 280 277 273 270 268 268 267 266 266 267 268 269 270 270 272 273 274 275 276 277 277 274 268 262 254 247 243 242 240 237 236 235 234
318 318 319 319 319 320 319 319 320 320 321 321 320 320 318 317 316 314 312 311 309 307 305 303 302 301 299 297 295 293 292 290 289 288 288 287 288 289 290 291 292 292 293 293 293 291 289 288 286 284 282 280 279 276 272 269 267 266 265 265 265 266 266 268 269 269 270 271 271 272 274 276 277 275 271 265 258 252 246 243 241 239 238 236 235
318 318 318 319 319 319 319 319 320 320 321 321 320 319 318 317 317 315 314 312 310 307 305 304 302 301 299 297 296 294 292 290 289 288 286 285 286 287 288 289 290 291 292 292 292 291 289 287 285 283 280 279 278 275 271 269 266 265 264 263 264 264 265 266 267 268 268 270 270 270 272 274 275 275 273 268 263 256 250 246 243 241 239 238 236
318 317 317 318 318 318 318 319 320 320 320 320 320 319 318 318 317 316 315 313 311 309 307 305 303 301 300 298 296 294 292 290 288 287 285 284 284 285 286 287 288 290 291 292 291 290 289 287 285 283 280 278 277 275 271 268 266 264 263 262 262 263 263 264 266 266 267 268 269 269 270 272 273 274 274 270 266 261 255 250 246 242 240 238 237
316 317 317 317 318 318 318 319 320 320 320 320 319 319 318 318 317 316 315 314 312 311 309 306 304 302 300 298 296 294 293 290 288 286 285 284 283 283 284 285 286 288 290 290 290 290 289 286 284 282 279 277 276 274 270 267 265 263 262 260 260 261 261 262 264 264 265 267 268 268 269 270 272 273 273 272 268 264 259 254 249 245 241 238 237
316 317 317 317 318 318 318 319 320 320 320 319 319 319 318 318 317 316 315 314 313 311 309 307 305 303 301 299 297 295 293 291 288 286 284 283 281 281 282 283 284 286 288 289 289 289 288 286 284 281 279 277 275 274 270 266 264 263 261 260 259 259 259 261 262 263 263 265 266 267 267 269 270 271 272 272 269 265 262 258 252 247 243 239 237
317 317 317 317 318 318 319 319 320 320 320 319 319 319 318 317 316 315 314 313 313 311 310 308 306 304 301 299 296 294 293 291 288 286 284 282 280 280 280 280 282 284 286 287 287 288 287 285 283 281 278 276 275 273 269 265 263 262 260 259 258 257 258 259 260 261 261 263 264 265 266 267 269 270 271 271 270 267 263 260 256 251 246 242 238
317 317 317 317 318 318 319 319 320 320 319 319 319 318 317 316 315 314 313 312 312 311 310 308 307 305 302 300 297 294 292 290 288 286 284 282 280 278 278 278 280 282 284 285 285 286 286 284 282 279 276 275 274 272 268 265 263 261 259 258 257 256 256 257 259 259 259 261 262 263 265 266 267 268 270 270 270 268 264 261 259 255 250 245 241
317 317 317 317 317 318 319 319 320 320 319 319 318 317 316 315 314 314 313 312 311 310 310 309 307 306 304 301 298 295 292 289 287 285 283 281 279 277 277 277 278 280 282 283 284 285 285 283 281 278 276 274 273 270 266 264 262 261 259 257 256 255 255 256 257 257 257 258 260 261 263 264 265 266 268 269 269 268 265 262 260 257 253 248 244
317 317 317 317 318 318 319 320 320 319 318 318 317 316 315 314 314 314 313 312 312 311 310 309 308 306 304 302 300 296 293 289 286 284 282 281 279 277 275 275 276 278 281 282 282 283 283 282 280 277 275 273 271 268 265 263 262 260 258 256 255 254 254 255 255 256 256 256 257 259 261 263 264 265 266 267 268 268 266 263 260 258 256 252 247
317 317 317 318 318 319 319 319 319 318 318 317 317 317 316 315 314 314 314 314 313 312 311 309 308 307 305 303 300 297 293 289 285 283 281 279 278 276 274 273 275 277 279 281 281 281 282 281 279 276 273 272 270 266 263 262 261 260 258 256 254 254 253 254 254 254 254 255 255 257 259 261 262 263 264 266 267 267 266 263 261 259 257 254 250
318 318 319 319 318 318 318 318 318 318 317 318 318 317 316 315 314 315 315 315 315 314 312 310 308 306 305 303 301 297 293 289 285 282 280 278 276 275 273 272 273 275 278 279 280 280 281 279 277 275 273 271 268 265 262 261 260 260 258 255 254 253 253 253 252 253 253 253 254 255 257 259 260 261 263 264 265 265 265 263 261 259 257 254 251
319 320 320 319 318 318 318 318 318 318 317 318 318 317 316 315 315 316 316 316 316 315 313 311 308 307 305 303 301 297 293 289 285 281 279 277 275 273 271 271 272 274 276 278 278 279 279 278 276 274 272 270 267 263 261 260 260 259 257 255 253 252 252 251 251 251 252 252 253 253 255 256 258 260 261 262 263 263 264 263 261 259 258 255 252
321 320 320 319 319 319 319 319 319 318 318 318 318 318 318 317 317 318 318 317 317 316 315 313 310 308 306 303 301 297 293 288 285 281 278 276 274 272 270 269 270 272 274 276 277 278 278 277 275 273 270 268 266 262 260 259 259 258 257 254 252 251 251 250 250 250 250 251 251 252 253 255 256 257 259 260 261 262 263 262 261 260 258 256 253
321 320 320 320 320 320 320 320 320 319 319 319 318 318 318 318 318 319 318 318 317 317 316 314 312 310 308 305 302 299 294 288 284 280 277 274 272 270 268 268 269 271 273 275 276 276 276 275 274 271 269 267 264 260 259 258 258 258 256 253 251 250 250 250 249 248 248 249 249 251 252 253 254 254 256 258 260 262 263 263 261 260 258 256 254
321 321 321 321 321 321 321 321 321 320 320 320 319 318 318 319 319 319 319 318 318 317 317 315 313 311 309 307 304 301 296 289 283 280 277 273 270 268 267 266 267 270 272 274 275 275 275 273 272 269 267 265 262 259 258 258 257 257 256 253 251 250 249 248 247 247 247 247 248 250 251 252 252 253 255 257 259 260 262 263 261 259 257 256 254
321 321 322 322 322 322 322 322 322 321 321 320 320 320 319 319 319 319 319 319 319 319 318 316 314 312 310 308 307 305 299 291 284 279 276 273 268 266 265 265 265 268 271 272 274 274 272 271 269 267 266 264 260 258 257 256 256 256 255 252 250 249 248 247 246 246 246 246 247 249 251 251 251 253 254 256 257 257 259 260 260 258 256 255 254
322 322 323 323 323 323 323 323 323 323 322 322 321 321 320 320 320 320 321 321 320 320 319 318 315 313 312 311 310 308 303 295 286 280 276 272 267 264 263 263 264 266 269 271 272 271 270 269 268 266 264 262 259 256 255 255 255 256 254 251 248 248 247 245 245 245 245 245 246 248 249 250 251 252 253 254 255 255 256 258 258 256 254 253 253
323 324 324 324 325 325 325 324 324 324 324 323 322 322 321 321 321 321 322 322 321 321 321 320 318 315 313 312 311 310 306 299 290 282 277 272 266 262 262 262 263 265 268 270 270 269 268 267 266 265 263 260 257 256 255 255 255 255 253 250 248 247 245 244 243 243 243 244 246 247 248 249 251 251 251 253 254 254 255 255 256 255 253 251 251
324 325 325 325 325 325 325 325 325 325 325 325 324 323 323 323 323 323 323 322 322 322 322 321 319 317 314 313 312 311 307 302 293 284 277 272 265 261 261 261 262 265 267 268 268 266 265 265 264 263 261 258 256 255 255 254 254 254 251 249 247 246 244 243 242 242 242 243 245 246 246 248 250 250 251 252 254 254 254 254 255 255 252 250 249
325 325 326 326 326 325 326 326 326 326 326 325 324 323 323 323 323 323 323 323 323 323 323 322 320 317 315 314 314 312 309 304 296 286 278 272 265 261 260 260 262 264 266 266 265 264 264 264 263 261 260 257 255 255 254 253 253 252 250 247 246 245 244 242 241 240 241 242 244 245 246 247 249 250 250 252 253 254 254 253 253 253 250 248 247
325 326 326 326 326 326 327 327 327 327 326 325 324 324 324 324 324 324 325 325 325 324 324 323 321 319 318 317 315 314 311 305 297 287 279 272 265 261 259 260 261 263 265 265 264 263 263 263 261 260 258 256 255 254 253 252 252 251 248 246 245 244 243 242 241 240 240 242 243 244 245 247 249 250 249 250 252 254 254 253 252 251 249 246 245
326 326 326 327 327 327 327 328 328 327 327 326 326 326 326 326 325 325 326 326 326 325 325 325 323 322 321 319 317 315 312 306 297 288 279 272 266 261 260 260 260 262 264 264 264 262 262 261 260 259 257 256 255 254 252 251 251 249 247 244 243 242 241 241 240 239 239 241 242 243 245 247 249 250 248 248 251 253 253 252 251 250 249 247 246
326 326 326 327 327 328 328 328 328 328 328 328 328 328 328 327 327 327 327 327 327 327 327 327 325 325 324 321 318 315 312 305 297 288 280 273 266 262 260 260 260 261 262 263 263 262 262 261 260 258 256 255 255 253 251 250 250 248 245 243 242 241 240 239 239 239 239 241 241 242 244 247 249 248 247 247 249 251 252 252 251 250 249 248 247
326 326 326 327 328 328 329 329 329 329 329 330 330 330 329 329 328 328 328 328 329 330 330 329 327 326 325 323 319 316 312 305 297 289 282 274 268 263 261 261 260 260 261 261 262 262 262 261 259 256 254 253 254 252 250 249 249 246 243 241 240 240 239 238 239 239 239 241 241 242 244 246 247 246 246 246 248 249 250 251 251 250 249 248 248
327 327 327 328 328 329 329 329 329 329 330 331 331 331 331 331 330 330 331 331 332 332 331 329 328 327 326 324 321 316 312 306 298 290 283 276 269 264 262 261 260 260 260 259 260 261 261 260 258 254 251 251 252 251 249 249 247 244 241 239 239 239 238 238 238 238 239 240 240 242 244 244 244 244 244 245 247 249 249 250 251 250 249 248 248
327 327 327 328 329 329 329 329 330 330 331 332 332 333 332 332 332 332 333 333 332 331 330 329 329 328 326 324 322 318 312 306 299 292 285 277 270 265 262 260 260 260 259 258 258 259 260 259 257 252 250 250 250 249 248 248 246 243 239 238 238 237 237 237 238 238 238 239 240 241 243 242 242 243 243 245 248 249 250 251 250 248 247 248 249
327 328 328 329 329 329 329 330 331 331 332 333 333 333 333 333 333 333 333 333 333 332 332 331 329 328 326 325 323 319 313 307 301 294 286 277 270 265 262 260 259 259 258 257 257 258 258 258 254 251 249 249 248 247 247 247 245 242 238 237 238 237 236 237 238 237 237 238 240 241 242 242 243 244 245 246 248 250 252 252 251 248 247 248 249
327 328 328 329 329 329 330 330 331 332 333 334 334 333 333 333 334 334 334 334 335 334 333 331 329 327 326 324 323 320 315 308 302 295 286 277 270 265 262 259 258 257 256 256 256 257 257 255 252 249 248 248 247 247 246 246 244 241 236 236 237 237 236 237 237 236 237 238 240 241 243 244 245 246 247 249 250 252 253 253 251 250 248 248 248
327 328 329 329 329 329 330 331 331 332 333 334 333 332 333 334 334 334 335 335 334 334 333 331 329 326 325 323 322 319 315 308 302 295 285 276 270 265 261 258 256 256 255 255 256 257 255 252 250 248 247 247 246 246 246 245 243 240 236 235 235 235 235 235 237 237 238 239 241 243 244 245 247 248 250 251 252 253 253 252 251 250 250 249 249
327 328 329 329 329 329 330 331 332 332 332 332 332 333 333 333 333 333 332 332 332 332 332 331 329 326 324 322 320 318 314 308 302 294 285 276 269 263 259 257 256 255 255 254 255 255 252 249 247 246 245 244 244 245 245 243 241 239 236 233 233 234 234 234 236 237 239 240 241 243 245 247 248 250 250 250 250 251 252 251 251 250 249 249 248
327 328 329 329 328 329 330 331 332 332 332 332 332 332 332 331 331 330 330 330 331 331 331 331 330 327 324 322 321 318 313 307 302 294 284 275 266 260 258 257 255 254 253 253 254 252 249 245 243 243 242 242 242 243 244 242 239 236 234 233 234 234 234 234 235 237 239 240 241 243 245 246 247 248 248 247 247 248 250 251 251 250 248 247 247
327 328 329 329 329 329 331 331 332 332 332 332 332 332 331 330 329 329 329 330 330 331 331 332 331 330 327 324 322 319 315 309 302 294 285 275 266 261 259 258 255 253 252 251 250 248 244 242 241 240 240 240 241 241 241 240 237 234 233 233 234 234 234 234 236 238 239 240 241 243 243 244 244 245 245 246 247 248 250 251 252 251 249 247 246
328 328 329 329 329 330 331 331 332 332 333 332 331 331 331 330 329 329 330 330 330 331 331 331 332 332 330 327 323 321 317 311 304 295 285 275 267 262 259 255 252 251 249 248 247 243 241 239 238 237 237 238 239 240 240 239 237 235 234 234 235 236 236 237 238 239 239 240 241 242 242 243 244 245 246 247 248 249 250 251 251 251 250 249 247
328 328 329 330 330 331 331 331 332 333 332 332 331 331 331 331 330 330 330 330 330 331 331 331 331 332 331 328 324 321 318 312 305 296 285 275 267 261 256 253 250 247 245 244 242 239 238 237 234 233 234 236 237 239 239 238 237 237 237 236 236 237 237 237 239 239 239 240 241 243 244 245 245 246 247 248 249 250 250 251 252 252 251 250 249
328 329 330 330 331 331 331 332 332 332 332 331 332 332 332 332 331 331 330 330 330 330 330 330 330 331 331 329 324 321 318 313 306 297 285 275 267 261 256 253 249 244 241 239 238 236 236 235 232 232 233 236 238 240 242 241 239 237 236 236 236 236 237 238 239 238 239 242 244 245 246 246 247 248 249 250 251 251 251 251 252 252 252 251 249
329 329 330 331 331 332 332 332 332 332 332 332 333 333 333 332 332 331 330 329 329 329 329 329 329 330 330 328 324 320 316 312 306 297 287 277 268 261 255 251 247 243 239 237 235 236 236 233 232 233 234 237 242 244 244 242 239 236 236 237 237 236 237 236 235 235 237 240 242 243 245 246 247 248 250 251 252 252 251 251 251 251 251 250 248
330 330 331 331 332 332 332 332 332 333 333 333 334 333 333 333 332 331 330 329 328 328 328 328 328 328 327 327 324 318 314 310 304 296 287 278 271 263 256 250 246 243 240 237 236 237 237 234 233 234 237 241 245 245 244 243 242 239 239 238 235 233 233 231 230 232 235 238 240 242 244 246 247 249 250 250 250 250 249 249 249 249 249 248 247